UTMN 2 (RS27S)

Last updated on Mon Sep 15 2025 00:03:09 GMT+0000 (Coordinated Universal Time)

1 57203U 23091AP 25257.24711385 .00008095 00000+0 34116-3 0 9993 2 57203 97.5500 316.6645 0008711 340.9015 19.1894 15.23567765122403
UTC large
Height (km)
Speed (km/s)
/
Latitude / Longitude
Inclination (degrees)
Orbital Period (minutes)
Azimuth
Elevation
Range (km)
Doppler Factor

Next 0 passes for location: London (51.5072 / 0.1276)

Sorry there are no passes over London.